Time,TemperatureF,DewpointF,PressureIn,WindDirection,WindDirectionDegrees,WindSpeedMPH,WindSpeedGustMPH,Humidity,HourlyPrecipIn,Conditions,Clouds,dailyrainin,SoftwareType,DateUTC
2014-01-29 00:14:00,42.8,40.4,29.25,ENE,68,8.0,14.0,91,0.00,CLR,,0.00,WeatherDisplay:10.37,2014-01-29 00:14:00,
2014-01-29 00:29:00,43.1,40.9,29.25,ENE,68,8.0,17.0,92,0.00,CLR,,0.00,WeatherDisplay:10.37,2014-01-29 00:29:00,
2014-01-29 00:44:00,43.3,41.1,29.26,ENE,66,8.0,15.0,92,0.01,RA,,0.01,WeatherDisplay:10.37,2014-01-29 00:44:00,
2014-01-29 00:59:00,43.5,41.3,29.27,ENE,70,9.0,16.0,92,0.00,CLR,,0.01,WeatherDisplay:10.37,2014-01-29 00:59:00,
2014-01-29 01:14:00,43.5,41.3,29.28,ENE,63,8.0,15.0,92,0.00,CLR,,0.01,WeatherDisplay:10.37,2014-01-29 01:14:00,
2014-01-29 01:29:00,43.6,41.2,29.28,ENE,66,9.0,14.0,91,0.00,CLR,,0.01,WeatherDisplay:10.37,2014-01-29 01:29:00,
2014-01-29 01:44:00,43.8,41.3,29.29,ENE,71,9.0,17.0,91,0.00,CLR,,0.01,WeatherDisplay:10.37,2014-01-29 01:44:00,
2014-01-29 01:59:00,43.7,41.0,29.30,ENE,65,9.0,16.0,90,0.00,CLR,,0.01,WeatherDisplay:10.37,2014-01-29 01:59:00,
2014-01-29 02:14:00,43.7,40.9,29.31,ENE,67,8.0,20.0,90,0.00,CLR,,0.01,WeatherDisplay:10.37,2014-01-29 02:14:00,
2014-01-29 02:29:00,43.7,41.0,29.32,ENE,71,9.0,16.0,90,0.00,CLR,,0.01,WeatherDisplay:10.37,2014-01-29 02:29:00,
2014-01-29 02:44:00,43.7,41.0,29.32,ENE,66,7.0,17.0,90,0.00,CLR,,0.01,WeatherDisplay:10.37,2014-01-29 02:44:00,
2014-01-29 02:59:00,43.8,41.1,29.33,ENE,69,8.0,16.0,90,0.00,CLR,,0.01,WeatherDisplay:10.37,2014-01-29 02:59:00,
2014-01-29 03:14:00,43.5,41.0,29.33,ENE,72,9.0,20.0,91,0.01,RA,,0.02,WeatherDisplay:10.37,2014-01-29 03:14:00,
2014-01-29 03:29:00,42.9,40.5,29.33,ENE,71,8.0,16.0,91,0.00,CLR,,0.02,WeatherDisplay:10.37,2014-01-29 03:29:00,
2014-01-29 03:44:00,42.7,40.3,29.34,ENE,67,8.0,15.0,91,0.00,CLR,,0.02,WeatherDisplay:10.37,2014-01-29 03:44:00,
2014-01-29 03:59:00,42.7,40.3,29.34,ENE,71,7.0,16.0,91,0.00,CLR,,0.02,WeatherDisplay:10.37,2014-01-29 03:59:00,
2014-01-29 04:14:00,42.8,40.6,29.35,ENE,69,10.0,16.0,92,0.00,CLR,,0.02,WeatherDisplay:10.37,2014-01-29 04:14:00,
2014-01-29 04:29:00,42.8,40.6,29.35,ENE,66,9.0,16.0,92,0.00,CLR,,0.02,WeatherDisplay:10.37,2014-01-29 04:29:00,
2014-01-29 04:44:00,42.9,40.5,29.36,ENE,74,10.0,18.0,91,0.00,CLR,,0.02,WeatherDisplay:10.37,2014-01-29 04:44:00,
2014-01-29 04:59:00,42.9,40.2,29.37,East,82,12.0,20.0,90,0.00,CLR,,0.02,WeatherDisplay:10.37,2014-01-29 04:59:00,
2014-01-29 05:14:00,42.9,39.9,29.37,East,79,10.0,18.0,89,0.00,CLR,,0.02,WeatherDisplay:10.37,2014-01-29 05:14:00,
2014-01-29 05:29:00,42.3,39.3,29.38,ENE,77,14.0,27.0,89,0.00,CLR,,0.02,WeatherDisplay:10.37,2014-01-29 05:29:00,
2014-01-29 05:44:00,41.5,38.5,29.39,ENE,76,12.0,24.0,89,0.00,CLR,,0.02,WeatherDisplay:10.37,2014-01-29 05:44:00,
2014-01-29 05:59:00,41.3,38.6,29.40,ENE,78,13.0,21.0,90,0.00,CLR,,0.02,WeatherDisplay:10.37,2014-01-29 05:59:00,
2014-01-29 06:14:00,41.9,39.2,29.41,East,79,10.0,21.0,90,0.00,CLR,,0.02,WeatherDisplay:10.37,2014-01-29 06:14:00,
2014-01-29 06:29:00,41.9,39.2,29.42,East,79,13.0,22.0,90,0.00,CLR,,0.02,WeatherDisplay:10.37,2014-01-29 06:29:00,
2014-01-29 06:44:00,41.5,39.1,29.43,ENE,76,12.0,20.0,91,0.00,CLR,,0.02,WeatherDisplay:10.37,2014-01-29 06:44:00,
2014-01-29 06:59:00,41.2,38.8,29.44,East,87,12.0,20.0,91,0.00,CLR,,0.02,WeatherDisplay:10.37,2014-01-29 06:59:00,
2014-01-29 07:14:00,40.9,38.5,29.45,East,85,8.0,17.0,91,0.00,CLR,,0.02,WeatherDisplay:10.37,2014-01-29 07:14:00,
2014-01-29 07:29:00,40.8,38.4,29.45,East,88,8.0,20.0,91,0.01,CLR,,0.02,WeatherDisplay:10.37,2014-01-29 07:29:00,
2014-01-29 07:44:00,40.8,38.4,29.46,East,80,9.0,18.0,91,0.00,CLR,,0.02,WeatherDisplay:10.37,2014-01-29 07:44:00,
2014-01-29 07:59:00,40.7,38.6,29.47,ENE,68,8.0,18.0,92,0.00,CLR,,0.02,WeatherDisplay:10.37,2014-01-29 07:59:00,
2014-01-29 08:14:00,40.8,38.9,29.48,ENE,69,7.0,16.0,93,0.01,RA,,0.03,WeatherDisplay:10.37,2014-01-29 08:14:00,
2014-01-29 08:29:00,41.7,39.8,29.49,ENE,70,8.0,17.0,93,0.00,CLR,,0.03,WeatherDisplay:10.37,2014-01-29 08:29:00,
2014-01-29 08:44:00,42.8,40.6,29.50,ENE,77,10.0,18.0,92,0.00,CLR,,0.03,WeatherDisplay:10.37,2014-01-29 08:44:00,
2014-01-29 08:59:00,43.0,40.6,29.51,ENE,69,10.0,20.0,91,0.00,CLR,,0.03,WeatherDisplay:10.37,2014-01-29 08:59:00,
2014-01-29 09:14:00,42.9,40.2,29.52,East,90,10.0,22.0,90,0.00,CLR,,0.03,WeatherDisplay:10.37,2014-01-29 09:14:00,
2014-01-29 09:29:00,42.5,40.1,29.53,East,81,8.0,14.0,91,0.01,RA,,0.04,WeatherDisplay:10.37,2014-01-29 09:29:00,
2014-01-29 09:44:00,42.1,39.9,29.54,East,90,7.0,20.0,92,0.01,RA,,0.05,WeatherDisplay:10.37,2014-01-29 09:44:00,
2014-01-29 09:59:00,42.0,39.8,29.54,East,87,8.0,12.0,92,0.00,CLR,,0.05,WeatherDisplay:10.37,2014-01-29 09:59:00,
2014-01-29 10:14:00,42.4,40.3,29.55,ENE,73,7.0,13.0,92,0.00,CLR,,0.05,WeatherDisplay:10.37,2014-01-29 10:14:00,
2014-01-29 10:29:00,43.2,40.2,29.56,ENE,78,10.0,21.0,89,0.00,CLR,,0.05,WeatherDisplay:10.37,2014-01-29 10:29:00,
2014-01-29 10:44:00,43.4,40.1,29.56,East,90,9.0,20.0,88,0.00,CLR,,0.05,WeatherDisplay:10.37,2014-01-29 10:44:00,
2014-01-29 10:59:00,43.5,39.9,29.57,East,81,9.0,18.0,87,0.00,CLR,,0.05,WeatherDisplay:10.37,2014-01-29 10:59:00,
2014-01-29 11:14:00,43.4,39.8,29.58,ENE,74,10.0,18.0,87,0.00,CLR,,0.05,WeatherDisplay:10.37,2014-01-29 11:14:00,
2014-01-29 11:29:00,43.3,39.7,29.58,East,79,9.0,17.0,87,0.00,CLR,,0.05,WeatherDisplay:10.37,2014-01-29 11:29:00,
2014-01-29 11:44:00,43.5,40.2,29.58,East,83,9.0,17.0,88,0.00,CLR,,0.05,WeatherDisplay:10.37,2014-01-29 11:44:00,
2014-01-29 11:59:00,43.6,40.0,29.58,ENE,77,8.0,20.0,87,0.00,CLR,,0.05,WeatherDisplay:10.37,2014-01-29 11:59:00,
2014-01-29 12:14:00,43.9,40.6,29.59,ENE,76,8.0,20.0,88,0.00,CLR,,0.05,WeatherDisplay:10.37,2014-01-29 12:14:00,
2014-01-29 12:29:00,43.8,40.2,29.60,ENE,75,10.0,21.0,87,0.00,CLR,,0.05,WeatherDisplay:10.37,2014-01-29 12:29:00,
2014-01-29 12:44:00,43.5,39.9,29.60,ENE,78,12.0,21.0,87,0.00,CLR,,0.05,WeatherDisplay:10.37,2014-01-29 12:44:00,
2014-01-29 12:59:00,43.4,39.8,29.60,ENE,74,9.0,18.0,87,0.00,CLR,,0.05,WeatherDisplay:10.37,2014-01-29 12:59:00,
2014-01-29 13:14:00,42.9,39.5,29.60,East,80,10.0,18.0,88,0.00,CLR,,0.05,WeatherDisplay:10.37,2014-01-29 13:14:00,
2014-01-29 13:29:00,42.5,39.5,29.61,ENE,76,7.0,20.0,89,0.00,CLR,,0.05,WeatherDisplay:10.37,2014-01-29 13:29:00,
2014-01-29 13:44:00,42.2,39.8,29.61,East,83,9.0,15.0,91,0.00,CLR,,0.05,WeatherDisplay:10.37,2014-01-29 13:44:00,
2014-01-29 13:59:00,42.6,39.6,29.61,East,83,9.0,20.0,89,0.00,CLR,,0.05,WeatherDisplay:10.37,2014-01-29 13:59:00,
2014-01-29 14:14:00,42.4,39.4,29.62,East,80,7.0,20.0,89,0.00,CLR,,0.05,WeatherDisplay:10.37,2014-01-29 14:14:00,
2014-01-29 14:29:00,42.5,39.2,29.62,East,88,10.0,17.0,88,0.00,CLR,,0.05,WeatherDisplay:10.37,2014-01-29 14:29:00,
2014-01-29 14:44:00,42.6,39.3,29.63,East,79,10.0,18.0,88,0.00,CLR,,0.05,WeatherDisplay:10.37,2014-01-29 14:44:00,
2014-01-29 14:59:00,42.7,39.4,29.63,East,84,7.0,17.0,88,0.00,CLR,,0.05,WeatherDisplay:10.37,2014-01-29 14:59:00,
2014-01-29 15:14:00,42.7,39.1,29.64,East,93,9.0,16.0,87,0.00,CLR,,0.05,WeatherDisplay:10.37,2014-01-29 15:14:00,
2014-01-29 15:29:00,42.4,39.1,29.64,East,93,10.0,18.0,88,0.00,CLR,,0.05,WeatherDisplay:10.37,2014-01-29 15:29:00,
2014-01-29 15:44:00,42.2,38.9,29.65,East,87,8.0,20.0,88,0.00,CLR,,0.05,WeatherDisplay:10.37,2014-01-29 15:44:00,
2014-01-29 15:59:00,42.0,38.7,29.66,East,81,9.0,18.0,88,0.00,CLR,,0.05,WeatherDisplay:10.37,2014-01-29 15:59:00,
2014-01-29 16:14:00,41.8,38.5,29.66,ENE,74,8.0,17.0,88,0.00,CLR,,0.05,WeatherDisplay:10.37,2014-01-29 16:14:00,
2014-01-29 16:29:00,41.8,38.5,29.67,ENE,77,8.0,17.0,88,0.00,CLR,,0.05,WeatherDisplay:10.37,2014-01-29 16:29:00,
2014-01-29 16:44:00,41.7,38.4,29.67,ENE,70,8.0,16.0,88,0.00,CLR,,0.05,WeatherDisplay:10.37,2014-01-29 16:44:00,
2014-01-29 16:59:00,41.7,38.1,29.68,ENE,78,9.0,17.0,87,0.00,CLR,,0.05,WeatherDisplay:10.37,2014-01-29 16:59:00,
2014-01-29 17:14:00,41.8,38.5,29.68,ENE,70,6.0,17.0,88,0.00,CLR,,0.05,WeatherDisplay:10.37,2014-01-29 17:14:00,
2014-01-29 17:29:00,41.5,38.2,29.68,ENE,69,7.0,13.0,88,0.00,CLR,,0.05,WeatherDisplay:10.37,2014-01-29 17:29:00,
2014-01-29 17:44:00,41.5,38.2,29.68,ENE,72,8.0,15.0,88,0.00,CLR,,0.05,WeatherDisplay:10.37,2014-01-29 17:44:00,
2014-01-29 17:59:00,41.2,38.2,29.69,ENE,69,10.0,15.0,89,0.00,CLR,,0.05,WeatherDisplay:10.37,2014-01-29 17:59:00,
2014-01-29 18:14:00,40.9,37.9,29.70,ENE,60,7.0,17.0,89,0.00,CLR,,0.05,WeatherDisplay:10.37,2014-01-29 18:14:00,
2014-01-29 18:29:00,40.8,38.1,29.70,ENE,62,10.0,16.0,90,0.00,CLR,,0.05,WeatherDisplay:10.37,2014-01-29 18:29:00,
2014-01-29 18:44:00,40.9,37.9,29.70,East,80,8.0,18.0,89,0.00,CLR,,0.05,WeatherDisplay:10.37,2014-01-29 18:44:00,
2014-01-29 18:59:00,40.8,38.1,29.71,East,83,7.0,18.0,90,0.00,CLR,,0.05,WeatherDisplay:10.37,2014-01-29 18:59:00,
2014-01-29 19:14:00,40.6,37.3,29.72,East,100,9.0,16.0,88,0.00,CLR,,0.05,WeatherDisplay:10.37,2014-01-29 19:14:00,
2014-01-29 19:29:00,40.4,37.4,29.72,East,87,5.0,16.0,89,0.00,CLR,,0.05,WeatherDisplay:10.37,2014-01-29 19:29:00,
2014-01-29 19:44:00,40.3,37.3,29.72,ENE,78,10.0,16.0,89,0.00,CLR,,0.05,WeatherDisplay:10.37,2014-01-29 19:44:00,
2014-01-29 19:59:00,40.3,37.3,29.73,East,91,9.0,21.0,89,0.00,CLR,,0.05,WeatherDisplay:10.37,2014-01-29 19:59:00,
2014-01-29 20:14:00,40.5,37.2,29.73,East,96,6.0,17.0,88,0.00,CLR,,0.05,WeatherDisplay:10.37,2014-01-29 20:14:00,
2014-01-29 20:29:00,40.4,37.1,29.74,East,95,5.0,14.0,88,0.00,CLR,,0.05,WeatherDisplay:10.37,2014-01-29 20:29:00,
2014-01-29 20:44:00,40.5,37.2,29.74,East,91,3.0,13.0,88,0.00,CLR,,0.05,WeatherDisplay:10.37,2014-01-29 20:44:00,
2014-01-29 20:59:00,40.6,37.0,29.74,East,84,5.0,10.0,87,0.00,CLR,,0.05,WeatherDisplay:10.37,2014-01-29 20:59:00,
2014-01-29 21:14:00,40.7,36.5,29.73,East,81,8.0,12.0,85,0.00,CLR,,0.05,WeatherDisplay:10.37,2014-01-29 21:14:00,
2014-01-29 21:29:00,40.7,35.9,29.74,ENE,78,8.0,16.0,83,0.00,CLR,,0.05,WeatherDisplay:10.37,2014-01-29 21:29:00,
2014-01-29 21:44:00,40.8,36.0,29.74,ENE,76,7.0,14.0,83,0.00,CLR,,0.05,WeatherDisplay:10.37,2014-01-29 21:44:00,
2014-01-29 21:59:00,40.7,35.9,29.74,East,81,7.0,15.0,83,0.00,CLR,,0.05,WeatherDisplay:10.37,2014-01-29 21:59:00,
2014-01-29 22:14:00,40.5,35.8,29.74,East,83,8.0,18.0,83,0.00,CLR,,0.05,WeatherDisplay:10.37,2014-01-29 22:14:00,
2014-01-29 22:29:00,40.4,35.7,29.74,East,90,10.0,18.0,83,0.00,CLR,,0.05,WeatherDisplay:10.37,2014-01-29 22:29:00,
2014-01-29 22:44:00,40.4,35.6,29.74,East,87,8.0,14.0,83,0.00,CLR,,0.05,WeatherDisplay:10.37,2014-01-29 22:44:00,
2014-01-29 22:59:00,40.3,35.8,29.74,East,84,9.0,16.0,84,0.00,CLR,,0.05,WeatherDisplay:10.37,2014-01-29 22:59:00,
2014-01-29 23:14:00,40.1,35.7,29.75,East,81,6.0,16.0,84,0.00,CLR,,0.05,WeatherDisplay:10.37,2014-01-29 23:14:00,
2014-01-29 23:29:00,40.0,35.3,29.75,East,86,9.0,14.0,83,0.00,CLR,,0.05,WeatherDisplay:10.37,2014-01-29 23:29:00,
2014-01-29 23:44:00,39.9,35.2,29.75,East,91,7.0,12.0,83,0.00,CLR,,0.05,WeatherDisplay:10.37,2014-01-29 23:44:00,
2014-01-29 23:59:00,39.9,34.9,29.75,ENE,78,3.0,15.0,82,0.00,CLR,,0.00,WeatherDisplay:10.37,2014-01-29 23:59:00,